Terminal Aerodrome Forecast
Issued by NWS Riverton, WY

Home | Current Version | Previous Version | Text Only | Print | Product List | Glossary On
Versions: 1 2 3 4 5 6 7 8 9 10 11 12 13 14 15
000
FTUS45 KRIW 250853 AAB
TAFRIW
TAF AMD
KRIW 250853Z 2509/2606 28015G25KT P6SM BKN090
     FM251000 26007KT P6SM SCT090
     FM251200 01008KT P6SM FEW090 SCT150
     FM252100 01012G18KT P6SM SCT060 BKN080
     FM260200 03008KT P6SM BKN070=

USA.gov is the U.S. government's official web portal to all federal, state and local government web resources and services.